Time,TemperatureF,DewpointF,PressureIn,WindDirection,WindDirectionDegrees,WindSpeedMPH,WindSpeedGustMPH,Humidity,HourlyPrecipIn,Conditions,Clouds,dailyrainin,SoftwareType,DateUTC
2013-11-10 00:00:00,31.6,28.5,30.16,East,92,0.0,0.0,88,0.00,,,0.00,Wunderground v.1.15,2013-11-10 05:00:00,
2013-11-10 00:05:00,31.6,28.7,30.16,East,92,0.0,2.0,89,0.00,,,0.00,Wunderground v.1.15,2013-11-10 05:05:00,
2013-11-10 00:15:00,31.4,28.5,30.16,East,88,0.0,1.0,89,0.00,,,0.00,Wunderground v.1.15,2013-11-10 05:15:00,
2013-11-10 00:20:00,31.3,28.4,30.15,East,88,0.0,0.0,89,0.00,,,0.00,Wunderground v.1.15,2013-11-10 05:20:00,
2013-11-10 00:25:00,31.2,28.3,30.15,East,88,0.0,0.0,89,0.00,,,0.00,Wunderground v.1.15,2013-11-10 05:25:00,
2013-11-10 00:30:00,31.2,28.6,30.15,East,88,0.0,0.0,90,0.00,,,0.00,Wunderground v.1.15,2013-11-10 05:30:00,
2013-11-10 00:40:00,31.1,28.5,30.14,East,88,0.0,0.0,90,0.00,,,0.00,Wunderground v.1.15,2013-11-10 05:40:00,
2013-11-10 00:45:00,31.1,28.5,30.14,East,88,0.0,0.0,90,0.00,,,0.00,Wunderground v.1.15,2013-11-10 05:45:00,
2013-11-10 00:50:00,31.1,28.5,30.14,East,88,0.0,0.0,90,0.00,,,0.00,Wunderground v.1.15,2013-11-10 05:50:00,
2013-11-10 00:55:00,31.1,28.5,30.14,East,88,0.0,0.0,90,0.00,,,0.00,Wunderground v.1.15,2013-11-10 05:55:00,
2013-11-10 01:00:00,31.1,28.5,30.13,East,88,0.0,0.0,90,0.00,,,0.00,Wunderground v.1.15,2013-11-10 06:00:00,
2013-11-10 01:05:00,31.1,28.5,30.13,East,88,0.0,0.0,90,0.00,,,0.00,Wunderground v.1.15,2013-11-10 06:05:00,
2013-11-10 01:10:00,31.0,28.4,30.12,East,88,0.0,0.0,90,0.00,,,0.00,Wunderground v.1.15,2013-11-10 06:10:00,
2013-11-10 01:15:00,31.0,28.4,30.12,East,88,0.0,0.0,90,0.00,,,0.00,Wunderground v.1.15,2013-11-10 06:15:00,
2013-11-10 01:20:00,31.0,28.4,30.12,East,88,0.0,0.0,90,0.00,,,0.00,Wunderground v.1.15,2013-11-10 06:20:00,
2013-11-10 01:25:00,31.0,28.4,30.12,East,88,0.0,0.0,90,0.00,,,0.00,Wunderground v.1.15,2013-11-10 06:25:00,
2013-11-10 01:30:00,31.0,28.4,30.12,East,88,0.0,0.0,90,0.00,,,0.00,Wunderground v.1.15,2013-11-10 06:30:00,
2013-11-10 01:35:00,31.0,28.4,30.11,East,88,0.0,0.0,90,0.00,,,0.00,Wunderground v.1.15,2013-11-10 06:35:00,
2013-11-10 01:40:00,31.0,28.4,30.11,East,88,0.0,0.0,90,0.00,,,0.00,Wunderground v.1.15,2013-11-10 06:40:00,
2013-11-10 01:45:00,30.9,28.3,30.11,East,88,0.0,0.0,90,0.00,,,0.00,Wunderground v.1.15,2013-11-10 06:45:00,
2013-11-10 01:50:00,30.9,28.3,30.11,East,88,0.0,0.0,90,0.00,,,0.00,Wunderground v.1.15,2013-11-10 06:50:00,
2013-11-10 01:55:00,30.9,28.3,30.10,East,88,0.0,0.0,90,0.00,,,0.00,Wunderground v.1.15,2013-11-10 06:55:00,
2013-11-10 02:00:00,30.8,28.2,30.10,East,88,0.0,0.0,90,0.00,,,0.00,Wunderground v.1.15,2013-11-10 07:00:00,
2013-11-10 02:05:00,30.8,28.2,30.10,ESE,121,0.0,0.0,90,0.00,,,0.00,Wunderground v.1.15,2013-11-10 07:05:00,
2013-11-10 02:10:00,31.0,28.4,30.10,ESE,112,0.0,0.0,90,0.00,,,0.00,Wunderground v.1.15,2013-11-10 07:10:00,
2013-11-10 02:15:00,31.2,28.6,30.10,ESE,112,0.0,0.0,90,0.00,,,0.00,Wunderground v.1.15,2013-11-10 07:15:00,
2013-11-10 02:20:00,31.3,28.7,30.10,ESE,112,0.0,0.0,90,0.00,,,0.00,Wunderground v.1.15,2013-11-10 07:20:00,
2013-11-10 02:25:00,31.4,28.5,30.10,ESE,112,0.0,0.0,89,0.00,,,0.00,Wunderground v.1.15,2013-11-10 07:25:00,
2013-11-10 02:30:00,31.5,28.6,30.09,ESE,112,0.0,1.0,89,0.00,,,0.00,Wunderground v.1.15,2013-11-10 07:30:00,
2013-11-10 02:35:00,31.6,28.7,30.09,East,95,0.0,1.0,89,0.00,,,0.00,Wunderground v.1.15,2013-11-10 07:35:00,
2013-11-10 02:40:00,31.6,28.7,30.09,East,94,0.0,0.0,89,0.00,,,0.00,Wunderground v.1.15,2013-11-10 07:40:00,
2013-11-10 02:45:00,31.6,28.7,30.08,East,98,0.0,0.0,89,0.00,,,0.00,Wunderground v.1.15,2013-11-10 07:45:00,
2013-11-10 02:50:00,31.5,28.6,30.08,East,98,0.0,0.0,89,0.00,,,0.00,Wunderground v.1.15,2013-11-10 07:50:00,
2013-11-10 03:00:00,31.2,28.6,30.08,East,98,0.0,0.0,90,0.00,,,0.00,Wunderground v.1.15,2013-11-10 08:00:00,
2013-11-10 03:05:00,31.1,28.5,30.08,East,98,0.0,0.0,90,0.00,,,0.00,Wunderground v.1.15,2013-11-10 08:05:00,
2013-11-10 03:10:00,31.0,28.4,30.08,East,98,0.0,0.0,90,0.00,,,0.00,Wunderground v.1.15,2013-11-10 08:10:00,
2013-11-10 03:15:00,30.9,28.3,30.07,East,98,0.0,0.0,90,0.00,,,0.00,Wunderground v.1.15,2013-11-10 08:15:00,
2013-11-10 03:20:00,30.9,28.3,30.07,East,98,0.0,0.0,90,0.00,,,0.00,Wunderground v.1.15,2013-11-10 08:20:00,
2013-11-10 03:25:00,30.8,28.2,30.06,East,98,0.0,0.0,90,0.00,,,0.00,Wunderground v.1.15,2013-11-10 08:25:00,
2013-11-10 03:30:00,30.7,28.1,30.06,East,98,0.0,0.0,90,0.00,,,0.00,Wunderground v.1.15,2013-11-10 08:30:00,
2013-11-10 03:40:00,30.7,28.1,30.05,East,98,0.0,0.0,90,0.00,,,0.00,Wunderground v.1.15,2013-11-10 08:40:00,
2013-11-10 03:45:00,30.7,28.1,30.05,East,98,0.0,0.0,90,0.00,,,0.00,Wunderground v.1.15,2013-11-10 08:45:00,
2013-11-10 03:50:00,30.8,28.2,30.05,East,98,0.0,0.0,90,0.00,,,0.00,Wunderground v.1.15,2013-11-10 08:50:00,
2013-11-10 03:55:00,30.8,28.2,30.05,East,98,0.0,0.0,90,0.00,,,0.00,Wunderground v.1.15,2013-11-10 08:55:00,
2013-11-10 04:05:00,30.8,28.2,30.05,East,98,0.0,0.0,90,0.00,,,0.00,Wunderground v.1.15,2013-11-10 09:05:00,
2013-11-10 04:10:00,30.7,28.1,30.05,East,98,0.0,0.0,90,0.00,,,0.00,Wunderground v.1.15,2013-11-10 09:10:00,
2013-11-10 04:15:00,30.7,28.1,30.05,East,98,0.0,0.0,90,0.00,,,0.00,Wunderground v.1.15,2013-11-10 09:15:00,
2013-11-10 04:20:00,30.7,28.1,30.05,East,98,0.0,0.0,90,0.00,,,0.00,Wunderground v.1.15,2013-11-10 09:20:00,
2013-11-10 04:25:00,30.6,28.0,30.06,East,98,0.0,0.0,90,0.00,,,0.00,Wunderground v.1.15,2013-11-10 09:25:00,
2013-11-10 04:30:00,30.7,28.1,30.05,East,98,0.0,0.0,90,0.00,,,0.00,Wunderground v.1.15,2013-11-10 09:30:00,
2013-11-10 04:40:00,30.6,28.0,30.05,East,98,0.0,0.0,90,0.00,,,0.00,Wunderground v.1.15,2013-11-10 09:40:00,
2013-11-10 04:45:00,30.6,28.0,30.05,East,98,0.0,0.0,90,0.00,,,0.00,Wunderground v.1.15,2013-11-10 09:45:00,
2013-11-10 04:50:00,30.6,27.7,30.05,East,98,0.0,0.0,89,0.00,,,0.00,Wunderground v.1.15,2013-11-10 09:50:00,
2013-11-10 04:55:00,30.6,27.7,30.04,East,98,0.0,0.0,89,0.00,,,0.00,Wunderground v.1.15,2013-11-10 09:55:00,
2013-11-10 05:00:00,30.7,27.8,30.04,East,98,0.0,0.0,89,0.00,,,0.00,Wunderground v.1.15,2013-11-10 10:00:00,
2013-11-10 05:10:00,30.6,27.7,30.03,East,98,0.0,0.0,89,0.00,,,0.00,Wunderground v.1.15,2013-11-10 10:10:00,
2013-11-10 05:15:00,30.7,27.8,30.02,East,98,0.0,0.0,89,0.00,,,0.00,Wunderground v.1.15,2013-11-10 10:15:00,
2013-11-10 05:20:00,30.6,27.7,30.03,East,98,0.0,0.0,89,0.00,,,0.00,Wunderground v.1.15,2013-11-10 10:20:00,
2013-11-10 05:30:00,30.6,27.7,30.02,East,98,0.0,0.0,89,0.00,,,0.00,Wunderground v.1.15,2013-11-10 10:30:00,
2013-11-10 05:35:00,30.6,27.7,30.02,East,98,0.0,0.0,89,0.00,,,0.00,Wunderground v.1.15,2013-11-10 10:35:00,
2013-11-10 05:40:00,30.6,27.7,30.02,East,98,0.0,0.0,89,0.00,,,0.00,Wunderground v.1.15,2013-11-10 10:40:00,
2013-11-10 05:45:00,30.6,27.7,30.02,East,98,0.0,0.0,89,0.00,,,0.00,Wunderground v.1.15,2013-11-10 10:45:00,
2013-11-10 05:50:00,30.6,27.7,30.02,East,98,0.0,0.0,89,0.00,,,0.00,Wunderground v.1.15,2013-11-10 10:50:00,
2013-11-10 05:55:00,30.6,27.7,30.02,East,98,0.0,0.0,89,0.00,,,0.00,Wunderground v.1.15,2013-11-10 10:55:00,
2013-11-10 06:00:00,30.6,27.7,30.01,East,98,0.0,0.0,89,0.00,,,0.00,Wunderground v.1.15,2013-11-10 11:00:00,
2013-11-10 06:10:00,30.7,27.8,30.01,East,98,0.0,0.0,89,0.00,,,0.00,Wunderground v.1.15,2013-11-10 11:10:00,
2013-11-10 06:15:00,30.7,27.8,30.01,East,98,0.0,0.0,89,0.00,,,0.00,Wunderground v.1.15,2013-11-10 11:15:00,
2013-11-10 06:25:00,30.7,27.8,30.00,East,98,0.0,0.0,89,0.00,,,0.00,Wunderground v.1.15,2013-11-10 11:25:00,
2013-11-10 06:30:00,30.6,27.7,30.00,East,98,0.0,0.0,89,0.00,,,0.00,Wunderground v.1.15,2013-11-10 11:30:00,
2013-11-10 06:35:00,30.6,27.5,30.00,East,98,0.0,0.0,88,0.00,,,0.00,Wunderground v.1.15,2013-11-10 11:35:00,
2013-11-10 06:40:00,30.6,27.5,30.00,East,98,0.0,0.0,88,0.00,,,0.00,Wunderground v.1.15,2013-11-10 11:40:00,
2013-11-10 06:45:00,30.6,27.5,30.00,West,277,0.0,0.0,88,0.00,,,0.00,Wunderground v.1.15,2013-11-10 11:45:00,
2013-11-10 06:55:00,30.6,27.5,30.00,West,277,0.0,0.0,88,0.00,,,0.00,Wunderground v.1.15,2013-11-10 11:55:00,
2013-11-10 07:00:00,30.6,27.5,30.00,West,277,0.0,0.0,88,0.00,,,0.00,Wunderground v.1.15,2013-11-10 12:00:00,
2013-11-10 07:05:00,30.6,27.5,30.00,West,277,0.0,0.0,88,0.00,,,0.00,Wunderground v.1.15,2013-11-10 12:05:00,
2013-11-10 07:10:00,30.7,27.6,30.00,West,277,0.0,0.0,88,0.00,,,0.00,Wunderground v.1.15,2013-11-10 12:10:00,
2013-11-10 07:20:00,30.7,27.6,30.00,West,277,0.0,0.0,88,0.00,,,0.00,Wunderground v.1.15,2013-11-10 12:20:00,
2013-11-10 07:30:00,30.8,27.7,30.00,West,277,0.0,0.0,88,0.00,,,0.00,Wunderground v.1.15,2013-11-10 12:30:00,
2013-11-10 07:35:00,30.8,27.7,30.00,West,277,0.0,0.0,88,0.00,,,0.00,Wunderground v.1.15,2013-11-10 12:35:00,
2013-11-10 07:45:00,30.9,27.8,30.00,West,277,0.0,0.0,88,0.00,,,0.00,Wunderground v.1.15,2013-11-10 12:45:00,
2013-11-10 07:55:00,31.0,27.9,29.99,West,277,0.0,0.0,88,0.00,,,0.00,Wunderground v.1.15,2013-11-10 12:55:00,
2013-11-10 08:00:00,31.1,28.0,29.98,West,277,0.0,0.0,88,0.00,,,0.00,Wunderground v.1.15,2013-11-10 13:00:00,
2013-11-10 08:05:00,31.3,28.2,29.98,West,277,0.0,0.0,88,0.00,,,0.00,Wunderground v.1.15,2013-11-10 13:05:00,
2013-11-10 08:10:00,31.4,28.3,29.99,West,277,0.0,0.0,88,0.00,,,0.00,Wunderground v.1.15,2013-11-10 13:10:00,
2013-11-10 08:15:00,31.5,28.4,29.99,West,275,0.0,0.0,88,0.00,,,0.00,Wunderground v.1.15,2013-11-10 13:15:00,
2013-11-10 08:20:00,31.5,28.4,29.99,West,275,0.0,0.0,88,0.00,,,0.00,Wunderground v.1.15,2013-11-10 13:20:00,
2013-11-10 08:25:00,31.5,28.4,29.99,West,275,0.0,0.0,88,0.00,,,0.00,Wunderground v.1.15,2013-11-10 13:25:00,
2013-11-10 08:30:00,31.6,28.5,29.98,West,275,0.0,0.0,88,0.00,,,0.00,Wunderground v.1.15,2013-11-10 13:30:00,
2013-11-10 08:40:00,31.7,28.6,29.98,West,275,0.0,0.0,88,0.00,,,0.00,Wunderground v.1.15,2013-11-10 13:40:00,
2013-11-10 08:50:00,31.8,28.7,29.97,West,275,0.0,0.0,88,0.00,,,0.00,Wunderground v.1.15,2013-11-10 13:50:00,
2013-11-10 08:55:00,31.8,28.7,29.98,West,276,0.0,0.0,88,0.00,,,0.00,Wunderground v.1.15,2013-11-10 13:55:00,
2013-11-10 09:00:00,31.9,28.8,29.97,West,276,0.0,0.0,88,0.00,,,0.00,Wunderground v.1.15,2013-11-10 14:00:00,
2013-11-10 09:05:00,31.9,28.8,29.97,West,276,0.0,0.0,88,0.00,,,0.00,Wunderground v.1.15,2013-11-10 14:05:00,
2013-11-10 09:10:00,32.0,28.8,29.97,West,276,0.0,0.0,88,0.00,,,0.00,Wunderground v.1.15,2013-11-10 14:10:00,
2013-11-10 09:15:00,32.0,28.8,29.97,West,276,0.0,0.0,88,0.00,,,0.00,Wunderground v.1.15,2013-11-10 14:15:00,
2013-11-10 09:20:00,32.1,28.9,29.97,West,276,0.0,0.0,88,0.00,,,0.00,Wunderground v.1.15,2013-11-10 14:20:00,
2013-11-10 09:25:00,32.3,28.9,29.96,West,276,0.0,0.0,87,0.00,,,0.00,Wunderground v.1.15,2013-11-10 14:25:00,
2013-11-10 09:35:00,32.6,29.2,29.96,West,276,0.0,0.0,87,0.00,,,0.00,Wunderground v.1.15,2013-11-10 14:35:00,
2013-11-10 09:40:00,32.7,29.3,29.96,West,276,0.0,0.0,87,0.00,,,0.00,Wunderground v.1.15,2013-11-10 14:40:00,
2013-11-10 09:45:00,32.8,29.6,29.96,West,276,0.0,0.0,88,0.00,,,0.00,Wunderground v.1.15,2013-11-10 14:45:00,
2013-11-10 09:50:00,32.9,29.5,29.95,West,276,0.0,0.0,87,0.00,,,0.00,Wunderground v.1.15,2013-11-10 14:50:00,
2013-11-10 09:55:00,33.0,29.6,29.95,West,276,0.0,0.0,87,0.00,,,0.00,Wunderground v.1.15,2013-11-10 14:55:00,
2013-11-10 10:00:00,33.2,29.8,29.95,West,265,0.0,1.0,87,0.00,,,0.00,Wunderground v.1.15,2013-11-10 15:00:00,
2013-11-10 10:05:00,33.3,29.8,29.95,WSW,246,1.0,1.0,87,0.00,,,0.00,Wunderground v.1.15,2013-11-10 15:05:00,
2013-11-10 10:10:00,33.6,30.1,29.95,SSW,195,1.0,2.0,87,0.00,,,0.00,Wunderground v.1.15,2013-11-10 15:10:00,
2013-11-10 10:20:00,34.1,30.6,29.94,WSW,240,2.0,2.0,87,0.00,,,0.00,Wunderground v.1.15,2013-11-10 15:20:00,
2013-11-10 10:25:00,34.4,30.9,29.94,WSW,252,2.0,3.0,87,0.00,,,0.00,Wunderground v.1.15,2013-11-10 15:25:00,
2013-11-10 10:30:00,34.6,31.4,29.94,WSW,248,2.0,4.0,88,0.00,,,0.00,Wunderground v.1.15,2013-11-10 15:30:00,
2013-11-10 10:35:00,34.8,31.6,29.94,SW,232,3.0,4.0,88,0.00,,,0.01,Wunderground v.1.15,2013-11-10 15:35:00,
2013-11-10 10:45:00,35.1,32.5,29.92,WSW,257,2.0,2.0,90,0.00,,,0.01,Wunderground v.1.15,2013-11-10 15:45:00,
2013-11-10 10:50:00,35.1,32.5,29.92,SW,218,2.0,3.0,90,0.00,,,0.01,Wunderground v.1.15,2013-11-10 15:50:00,
2013-11-10 10:55:00,35.1,32.5,29.91,SW,217,1.0,3.0,90,0.00,,,0.02,Wunderground v.1.15,2013-11-10 15:55:00,
2013-11-10 11:00:00,35.1,32.5,29.91,SW,228,1.0,5.0,90,0.00,,,0.02,Wunderground v.1.15,2013-11-10 16:00:00,
2013-11-10 11:05:00,35.1,32.5,29.91,SW,229,2.0,5.0,90,0.05,,,0.03,Wunderground v.1.15,2013-11-10 16:05:00,
2013-11-10 11:10:00,35.2,32.6,29.90,SW,215,2.0,2.0,90,0.05,,,0.03,Wunderground v.1.15,2013-11-10 16:10:00,
2013-11-10 11:15:00,35.2,32.6,29.90,WSW,242,2.0,2.0,90,0.05,,,0.03,Wunderground v.1.15,2013-11-10 16:15:00,
2013-11-10 11:20:00,35.3,32.7,29.90,SSW,211,2.0,3.0,90,0.04,,,0.04,Wunderground v.1.15,2013-11-10 16:20:00,
2013-11-10 11:25:00,35.3,32.7,29.90,SW,232,2.0,3.0,90,0.04,,,0.04,Wunderground v.1.15,2013-11-10 16:25:00,
2013-11-10 11:30:00,35.5,32.9,29.90,SW,236,2.0,3.0,90,0.04,,,0.04,Wunderground v.1.15,2013-11-10 16:30:00,
2013-11-10 11:35:00,35.5,32.9,29.89,West,271,2.0,3.0,90,0.04,,,0.04,Wunderground v.1.15,2013-11-10 16:35:00,
2013-11-10 11:40:00,35.6,33.0,29.89,West,267,2.0,2.0,90,0.00,,,0.04,Wunderground v.1.15,2013-11-10 16:40:00,
2013-11-10 11:45:00,35.7,33.1,29.88,West,279,2.0,2.0,90,0.00,,,0.05,Wunderground v.1.15,2013-11-10 16:45:00,
2013-11-10 11:55:00,36.3,33.6,29.88,SW,218,1.0,2.0,90,0.00,,,0.05,Wunderground v.1.15,2013-11-10 16:55:00,
2013-11-10 12:00:00,36.5,33.8,29.88,SW,235,2.0,2.0,90,0.00,,,0.05,Wunderground v.1.15,2013-11-10 17:00:00,
2013-11-10 12:05:00,36.7,34.0,29.88,SW,225,2.0,2.0,90,0.00,,,0.05,Wunderground v.1.15,2013-11-10 17:05:00,
2013-11-10 12:10:00,36.9,34.5,29.87,SW,231,3.0,3.0,91,0.00,,,0.05,Wunderground v.1.15,2013-11-10 17:10:00,
2013-11-10 12:15:00,37.0,34.6,29.87,WNW,294,3.0,3.0,91,0.00,,,0.05,Wunderground v.1.15,2013-11-10 17:15:00,
2013-11-10 12:20:00,37.2,34.8,29.87,West,271,2.0,3.0,91,0.00,,,0.05,Wunderground v.1.15,2013-11-10 17:20:00,
2013-11-10 12:25:00,37.3,34.6,29.87,WSW,252,3.0,3.0,90,0.00,,,0.05,Wunderground v.1.15,2013-11-10 17:25:00,
2013-11-10 12:30:00,37.4,34.7,29.87,SSW,202,3.0,4.0,90,0.00,,,0.05,Wunderground v.1.15,2013-11-10 17:30:00,
2013-11-10 12:35:00,37.5,34.8,29.86,WSW,240,3.0,4.0,90,0.00,,,0.05,Wunderground v.1.15,2013-11-10 17:35:00,
2013-11-10 12:40:00,37.7,35.0,29.86,SW,224,4.0,4.0,90,0.00,,,0.05,Wunderground v.1.15,2013-11-10 17:40:00,
2013-11-10 12:45:00,38.0,35.3,29.86,WSW,241,3.0,5.0,90,0.00,,,0.05,Wunderground v.1.15,2013-11-10 17:45:00,
2013-11-10 12:50:00,38.2,35.5,29.85,SW,236,2.0,5.0,90,0.00,,,0.05,Wunderground v.1.15,2013-11-10 17:50:00,
2013-11-10 12:55:00,38.5,35.8,29.85,WSW,242,2.0,5.0,90,0.00,,,0.05,Wunderground v.1.15,2013-11-10 17:55:00,
2013-11-10 13:00:00,38.7,35.7,29.85,WNW,282,3.0,5.0,89,0.00,,,0.05,Wunderground v.1.15,2013-11-10 18:00:00,
2013-11-10 13:05:00,38.8,35.8,29.85,West,272,3.0,5.0,89,0.00,,,0.05,Wunderground v.1.15,2013-11-10 18:05:00,
2013-11-10 13:10:00,38.9,35.9,29.84,SW,230,3.0,5.0,89,0.00,,,0.05,Wunderground v.1.15,2013-11-10 18:10:00,
2013-11-10 13:15:00,39.1,36.1,29.84,West,269,3.0,5.0,89,0.00,,,0.05,Wunderground v.1.15,2013-11-10 18:15:00,
2013-11-10 13:20:00,39.3,36.3,29.84,West,264,3.0,3.0,89,0.00,,,0.05,Wunderground v.1.15,2013-11-10 18:20:00,
2013-11-10 13:25:00,39.4,36.4,29.84,WSW,253,1.0,3.0,89,0.00,,,0.05,Wunderground v.1.15,2013-11-10 18:25:00,
2013-11-10 13:30:00,39.5,36.5,29.84,SW,219,1.0,6.0,89,0.00,,,0.05,Wunderground v.1.15,2013-11-10 18:30:00,
2013-11-10 13:35:00,39.4,36.1,29.85,SSW,212,2.0,6.0,88,0.00,,,0.05,Wunderground v.1.15,2013-11-10 18:35:00,
2013-11-10 13:40:00,39.4,36.4,29.85,SW,223,2.0,3.0,89,0.00,,,0.05,Wunderground v.1.15,2013-11-10 18:40:00,
2013-11-10 13:45:00,39.3,36.0,29.85,SSW,193,2.0,3.0,88,0.00,,,0.05,Wunderground v.1.15,2013-11-10 18:45:00,
2013-11-10 13:50:00,39.1,35.8,29.85,SSW,202,3.0,12.0,88,0.00,,,0.05,Wunderground v.1.15,2013-11-10 18:50:00,
2013-11-10 13:55:00,38.9,35.6,29.84,WNW,290,3.0,12.0,88,0.00,,,0.05,Wunderground v.1.15,2013-11-10 18:55:00,
2013-11-10 14:00:00,38.8,35.6,29.84,WSW,242,5.0,5.0,88,0.00,,,0.05,Wunderground v.1.15,2013-11-10 19:00:00,
2013-11-10 14:10:00,38.9,35.6,29.84,SW,233,6.0,6.0,88,0.00,,,0.05,Wunderground v.1.15,2013-11-10 19:10:00,
2013-11-10 14:20:00,39.0,35.5,29.85,SSW,196,6.0,6.0,87,0.00,,,0.05,Wunderground v.1.15,2013-11-10 19:20:00,
2013-11-10 14:25:00,39.0,35.7,29.84,SSW,207,6.0,6.0,88,0.00,,,0.05,Wunderground v.1.15,2013-11-10 19:25:00,
2013-11-10 14:30:00,39.1,35.6,29.85,SSW,195,5.0,5.0,87,0.00,,,0.05,Wunderground v.1.15,2013-11-10 19:30:00,
2013-11-10 14:35:00,39.3,35.8,29.84,SW,221,5.0,5.0,87,0.00,,,0.05,Wunderground v.1.15,2013-11-10 19:35:00,
2013-11-10 14:40:00,39.4,35.9,29.85,South,180,5.0,5.0,87,0.00,,,0.05,Wunderground v.1.15,2013-11-10 19:40:00,
2013-11-10 14:45:00,39.5,36.0,29.85,SW,226,4.0,5.0,87,0.00,,,0.05,Wunderground v.1.15,2013-11-10 19:45:00,
2013-11-10 14:50:00,39.6,36.0,29.85,SW,232,4.0,4.0,87,0.00,,,0.05,Wunderground v.1.15,2013-11-10 19:50:00,
2013-11-10 14:55:00,39.6,36.0,29.85,WSW,245,4.0,6.0,87,0.00,,,0.05,Wunderground v.1.15,2013-11-10 19:55:00,
2013-11-10 15:00:00,39.6,36.0,29.85,SW,217,4.0,5.0,87,0.00,,,0.05,Wunderground v.1.15,2013-11-10 20:00:00,
2013-11-10 15:10:00,39.6,37.5,29.84,SW,216,5.0,5.0,92,0.00,,,0.05,Wunderground v.1.15,2013-11-10 20:10:00,
2013-11-10 15:15:00,39.5,36.0,29.84,WNW,293,4.0,5.0,87,0.00,,,0.05,Wunderground v.1.15,2013-11-10 20:15:00,
2013-11-10 15:20:00,39.5,36.2,29.85,SW,229,3.0,3.0,88,0.00,,,0.05,Wunderground v.1.15,2013-11-10 20:20:00,
2013-11-10 15:25:00,39.5,36.2,29.85,West,259,3.0,4.0,88,0.00,,,0.05,Wunderground v.1.15,2013-11-10 20:25:00,
2013-11-10 15:35:00,39.3,36.0,29.84,SW,230,5.0,5.0,88,0.00,,,0.05,Wunderground v.1.15,2013-11-10 20:35:00,
2013-11-10 15:40:00,39.4,36.1,29.84,SW,215,6.0,6.0,88,0.00,,,0.05,Wunderground v.1.15,2013-11-10 20:40:00,
2013-11-10 15:50:00,39.7,36.1,29.85,SSW,194,7.0,11.0,87,0.00,,,0.05,Wunderground v.1.15,2013-11-10 20:50:00,
2013-11-10 15:55:00,39.7,36.1,29.85,SSW,194,6.0,11.0,87,0.00,,,0.05,Wunderground v.1.15,2013-11-10 20:55:00,
2013-11-10 16:05:00,39.6,36.0,29.85,WSW,244,3.0,4.0,87,0.00,,,0.05,Wunderground v.1.15,2013-11-10 21:05:00,
2013-11-10 16:10:00,39.5,36.2,29.85,SW,223,4.0,9.0,88,0.00,,,0.05,Wunderground v.1.15,2013-11-10 21:10:00,
2013-11-10 16:15:00,39.5,36.2,29.85,WSW,238,5.0,9.0,88,0.00,,,0.05,Wunderground v.1.15,2013-11-10 21:15:00,
2013-11-10 16:25:00,39.5,36.0,29.85,SSW,213,6.0,7.0,87,0.00,,,0.05,Wunderground v.1.15,2013-11-10 21:25:00,
2013-11-10 16:30:00,39.5,36.0,29.85,SSW,205,6.0,6.0,87,0.00,,,0.05,Wunderground v.1.15,2013-11-10 21:30:00,
2013-11-10 16:35:00,39.4,35.9,29.85,WSW,253,6.0,6.0,87,0.00,,,0.05,Wunderground v.1.15,2013-11-10 21:35:00,
2013-11-10 16:40:00,39.5,36.0,29.85,SSW,202,5.0,5.0,87,0.00,,,0.05,Wunderground v.1.15,2013-11-10 21:40:00,
2013-11-10 16:45:00,39.4,35.6,29.85,WSW,238,4.0,5.0,86,0.00,,,0.05,Wunderground v.1.15,2013-11-10 21:45:00,
2013-11-10 16:50:00,39.4,35.6,29.85,WSW,239,5.0,8.0,86,0.00,,,0.05,Wunderground v.1.15,2013-11-10 21:50:00,
2013-11-10 16:55:00,39.3,35.8,29.86,SW,219,5.0,8.0,87,0.00,,,0.05,Wunderground v.1.15,2013-11-10 21:55:00,
2013-11-10 17:00:00,39.2,35.7,29.86,SSW,195,5.0,5.0,87,0.00,,,0.05,Wunderground v.1.15,2013-11-10 22:00:00,
2013-11-10 17:05:00,39.2,35.4,29.87,South,176,4.0,7.0,86,0.00,,,0.05,Wunderground v.1.15,2013-11-10 22:05:00,
2013-11-10 17:10:00,39.2,35.7,29.87,SW,232,3.0,4.0,87,0.00,,,0.05,Wunderground v.1.15,2013-11-10 22:10:00,
2013-11-10 17:15:00,39.2,35.7,29.87,SW,217,3.0,4.0,87,0.00,,,0.05,Wunderground v.1.15,2013-11-10 22:15:00,
2013-11-10 17:20:00,39.1,35.6,29.87,SSW,208,3.0,3.0,87,0.00,,,0.05,Wunderground v.1.15,2013-11-10 22:20:00,
2013-11-10 17:25:00,39.1,35.6,29.87,WSW,244,4.0,9.0,87,0.00,,,0.05,Wunderground v.1.15,2013-11-10 22:25:00,
2013-11-10 17:30:00,39.0,35.5,29.87,WSW,240,5.0,7.0,87,0.00,,,0.05,Wunderground v.1.15,2013-11-10 22:30:00,
2013-11-10 17:35:00,38.9,35.4,29.87,SW,220,5.0,7.0,87,0.00,,,0.05,Wunderground v.1.15,2013-11-10 22:35:00,
2013-11-10 17:45:00,38.9,35.4,29.87,SW,235,6.0,10.0,87,0.00,,,0.05,Wunderground v.1.15,2013-11-10 22:45:00,
2013-11-10 17:50:00,38.9,35.4,29.87,WSW,245,6.0,6.0,87,0.00,,,0.05,Wunderground v.1.15,2013-11-10 22:50:00,
2013-11-10 17:55:00,38.8,35.3,29.88,SW,236,5.0,6.0,87,0.00,,,0.05,Wunderground v.1.15,2013-11-10 22:55:00,
2013-11-10 18:00:00,38.7,35.2,29.88,SW,236,4.0,4.0,87,0.00,,,0.05,Wunderground v.1.15,2013-11-10 23:00:00,
2013-11-10 18:05:00,38.6,35.1,29.87,SSW,211,4.0,4.0,87,0.00,,,0.05,Wunderground v.1.15,2013-11-10 23:05:00,
2013-11-10 18:10:00,38.5,35.0,29.87,WSW,246,4.0,4.0,87,0.00,,,0.05,Wunderground v.1.15,2013-11-10 23:10:00,
2013-11-10 18:15:00,38.4,35.2,29.87,WSW,254,4.0,4.0,88,0.00,,,0.05,Wunderground v.1.15,2013-11-10 23:15:00,
2013-11-10 18:20:00,38.4,34.9,29.87,WSW,240,4.0,4.0,87,0.00,,,0.05,Wunderground v.1.15,2013-11-10 23:20:00,
2013-11-10 18:25:00,38.4,35.2,29.87,WSW,252,4.0,5.0,88,0.00,,,0.05,Wunderground v.1.15,2013-11-10 23:25:00,
2013-11-10 18:30:00,38.3,34.8,29.87,South,173,5.0,5.0,87,0.00,,,0.05,Wunderground v.1.15,2013-11-10 23:30:00,
2013-11-10 18:35:00,38.1,34.9,29.87,West,260,4.0,5.0,88,0.00,,,0.05,Wunderground v.1.15,2013-11-10 23:35:00,
2013-11-10 18:40:00,38.0,34.8,29.87,WSW,238,4.0,9.0,88,0.00,,,0.05,Wunderground v.1.15,2013-11-10 23:40:00,
2013-11-10 18:45:00,38.1,34.9,29.87,SSW,208,5.0,11.0,88,0.00,,,0.05,Wunderground v.1.15,2013-11-10 23:45:00,
2013-11-10 18:50:00,38.3,35.1,29.87,SSE,163,5.0,5.0,88,0.00,,,0.05,Wunderground v.1.15,2013-11-10 23:50:00,
2013-11-10 18:55:00,38.3,35.1,29.87,SW,224,5.0,5.0,88,0.00,,,0.05,Wunderground v.1.15,2013-11-10 23:55:00,
2013-11-10 19:00:00,38.4,35.2,29.87,WSW,241,4.0,4.0,88,0.00,,,0.05,Wunderground v.1.15,2013-11-11 00:00:00,
2013-11-10 19:10:00,38.2,35.0,29.88,SSW,205,2.0,5.0,88,0.00,,,0.05,Wunderground v.1.15,2013-11-11 00:10:00,
2013-11-10 19:15:00,38.3,35.1,29.88,South,186,3.0,8.0,88,0.00,,,0.05,Wunderground v.1.15,2013-11-11 00:15:00,
2013-11-10 19:20:00,38.3,35.1,29.88,SW,228,4.0,5.0,88,0.00,,,0.05,Wunderground v.1.15,2013-11-11 00:20:00,
2013-11-10 19:25:00,38.2,35.0,29.88,SSW,211,5.0,5.0,88,0.00,,,0.05,Wunderground v.1.15,2013-11-11 00:25:00,
2013-11-10 19:30:00,38.1,34.9,29.88,SW,225,5.0,5.0,88,0.00,,,0.05,Wunderground v.1.15,2013-11-11 00:30:00,
2013-11-10 19:35:00,38.0,34.8,29.87,SSW,195,5.0,7.0,88,0.00,,,0.05,Wunderground v.1.15,2013-11-11 00:35:00,
2013-11-10 19:40:00,38.0,35.0,29.87,SW,231,5.0,6.0,89,0.00,,,0.05,Wunderground v.1.15,2013-11-11 00:40:00,
2013-11-10 19:45:00,38.0,35.0,29.87,SW,232,5.0,6.0,89,0.00,,,0.05,Wunderground v.1.15,2013-11-11 00:45:00,
2013-11-10 19:55:00,38.0,35.0,29.87,SW,232,5.0,6.0,89,0.00,,,0.05,Wunderground v.1.15,2013-11-11 00:55:00,
2013-11-10 20:00:00,37.9,34.9,29.87,WSW,250,5.0,11.0,89,0.00,,,0.05,Wunderground v.1.15,2013-11-11 01:00:00,
2013-11-10 20:05:00,38.0,35.0,29.87,WSW,240,5.0,11.0,89,0.00,,,0.05,Wunderground v.1.15,2013-11-11 01:05:00,
2013-11-10 20:10:00,38.0,35.0,29.87,SW,225,6.0,6.0,89,0.00,,,0.05,Wunderground v.1.15,2013-11-11 01:10:00,
2013-11-10 20:15:00,37.9,34.7,29.87,SW,232,5.0,6.0,88,0.00,,,0.05,Wunderground v.1.15,2013-11-11 01:15:00,
2013-11-10 20:20:00,37.9,34.9,29.87,SSW,209,4.0,4.0,89,0.00,,,0.05,Wunderground v.1.15,2013-11-11 01:20:00,
2013-11-10 20:25:00,37.9,34.9,29.87,SW,224,4.0,4.0,89,0.00,,,0.05,Wunderground v.1.15,2013-11-11 01:25:00,
2013-11-10 20:30:00,37.9,34.9,29.87,WNW,283,4.0,4.0,89,0.00,,,0.05,Wunderground v.1.15,2013-11-11 01:30:00,
2013-11-10 20:35:00,37.9,34.9,29.87,West,264,4.0,6.0,89,0.00,,,0.05,Wunderground v.1.15,2013-11-11 01:35:00,
2013-11-10 20:40:00,38.0,35.0,29.87,WSW,250,5.0,5.0,89,0.00,,,0.05,Wunderground v.1.15,2013-11-11 01:40:00,
2013-11-10 20:45:00,38.0,34.8,29.87,SSW,207,6.0,6.0,88,0.00,,,0.05,Wunderground v.1.15,2013-11-11 01:45:00,
2013-11-10 20:50:00,38.0,34.8,29.87,SW,223,5.0,5.0,88,0.00,,,0.05,Wunderground v.1.15,2013-11-11 01:50:00,
2013-11-10 20:55:00,38.0,34.8,29.87,WNW,288,5.0,5.0,88,0.00,,,0.05,Wunderground v.1.15,2013-11-11 01:55:00,
2013-11-10 21:00:00,38.0,34.8,29.87,SSW,195,5.0,6.0,88,0.00,,,0.05,Wunderground v.1.15,2013-11-11 02:00:00,
2013-11-10 21:05:00,38.0,34.8,29.87,SW,236,5.0,6.0,88,0.00,,,0.05,Wunderground v.1.15,2013-11-11 02:05:00,
2013-11-10 21:10:00,38.2,35.0,29.87,West,262,5.0,5.0,88,0.00,,,0.05,Wunderground v.1.15,2013-11-11 02:10:00,
2013-11-10 21:15:00,38.2,35.0,29.88,West,267,5.0,5.0,88,0.00,,,0.05,Wunderground v.1.15,2013-11-11 02:15:00,
2013-11-10 21:20:00,38.3,35.1,29.88,SW,229,4.0,4.0,88,0.00,,,0.05,Wunderground v.1.15,2013-11-11 02:20:00,
2013-11-10 21:25:00,38.2,35.0,29.88,SSW,198,2.0,4.0,88,0.00,,,0.05,Wunderground v.1.15,2013-11-11 02:25:00,
2013-11-10 21:30:00,38.1,34.9,29.88,SSW,207,2.0,2.0,88,0.00,,,0.05,Wunderground v.1.15,2013-11-11 02:30:00,
2013-11-10 21:35:00,38.0,34.8,29.88,SE,134,2.0,4.0,88,0.00,,,0.05,Wunderground v.1.15,2013-11-11 02:35:00,
2013-11-10 21:40:00,38.0,34.8,29.88,South,184,1.0,3.0,88,0.00,,,0.05,Wunderground v.1.15,2013-11-11 02:40:00,
2013-11-10 21:45:00,37.9,34.7,29.88,SW,221,1.0,3.0,88,0.00,,,0.05,Wunderground v.1.15,2013-11-11 02:45:00,
2013-11-10 21:50:00,37.9,34.7,29.88,SW,217,2.0,2.0,88,0.00,,,0.05,Wunderground v.1.15,2013-11-11 02:50:00,
2013-11-10 21:55:00,37.8,34.6,29.88,SW,229,2.0,3.0,88,0.00,,,0.05,Wunderground v.1.15,2013-11-11 02:55:00,
2013-11-10 22:00:00,37.8,34.8,29.88,SW,214,4.0,4.0,89,0.00,,,0.05,Wunderground v.1.15,2013-11-11 03:00:00,
2013-11-10 22:10:00,37.9,34.7,29.88,SW,232,5.0,5.0,88,0.00,,,0.05,Wunderground v.1.15,2013-11-11 03:10:00,
2013-11-10 22:15:00,37.9,34.7,29.88,SSW,213,4.0,5.0,88,0.00,,,0.05,Wunderground v.1.15,2013-11-11 03:15:00,
2013-11-10 22:20:00,37.8,34.6,29.88,SW,223,4.0,4.0,88,0.00,,,0.05,Wunderground v.1.15,2013-11-11 03:20:00,
2013-11-10 22:25:00,37.7,34.5,29.88,SW,226,4.0,5.0,88,0.00,,,0.05,Wunderground v.1.15,2013-11-11 03:25:00,
2013-11-10 22:30:00,37.7,34.5,29.88,SW,229,4.0,4.0,88,0.00,,,0.05,Wunderground v.1.15,2013-11-11 03:30:00,
2013-11-10 22:35:00,37.8,34.6,29.88,WSW,248,4.0,4.0,88,0.00,,,0.05,Wunderground v.1.15,2013-11-11 03:35:00,
2013-11-10 22:40:00,37.8,34.6,29.88,WSW,245,4.0,4.0,88,0.00,,,0.05,Wunderground v.1.15,2013-11-11 03:40:00,
2013-11-10 22:45:00,37.8,34.6,29.88,SW,234,3.0,4.0,88,0.00,,,0.05,Wunderground v.1.15,2013-11-11 03:45:00,
2013-11-10 22:50:00,37.8,34.6,29.89,WSW,238,3.0,4.0,88,0.00,,,0.05,Wunderground v.1.15,2013-11-11 03:50:00,
2013-11-10 22:55:00,37.6,34.4,29.88,SW,229,3.0,5.0,88,0.00,,,0.05,Wunderground v.1.15,2013-11-11 03:55:00,
2013-11-10 23:00:00,37.5,34.3,29.88,WSW,250,4.0,5.0,88,0.00,,,0.05,Wunderground v.1.15,2013-11-11 04:00:00,
2013-11-10 23:05:00,37.4,34.2,29.88,SW,227,5.0,7.0,88,0.00,,,0.05,Wunderground v.1.15,2013-11-11 04:05:00,
2013-11-10 23:10:00,37.3,34.1,29.89,SW,231,5.0,6.0,88,0.00,,,0.05,Wunderground v.1.15,2013-11-11 04:10:00,
2013-11-10 23:15:00,37.3,34.1,29.89,SSW,208,5.0,6.0,88,0.00,,,0.05,Wunderground v.1.15,2013-11-11 04:15:00,
2013-11-10 23:20:00,37.4,34.2,29.89,WSW,243,5.0,5.0,88,0.00,,,0.05,Wunderground v.1.15,2013-11-11 04:20:00,
2013-11-10 23:25:00,37.4,34.2,29.89,SW,228,5.0,5.0,88,0.00,,,0.05,Wunderground v.1.15,2013-11-11 04:25:00,
2013-11-10 23:30:00,37.3,34.1,29.89,SW,223,4.0,4.0,88,0.00,,,0.05,Wunderground v.1.15,2013-11-11 04:30:00,
2013-11-10 23:35:00,37.2,34.0,29.89,SW,225,4.0,4.0,88,0.00,,,0.05,Wunderground v.1.15,2013-11-11 04:35:00,
2013-11-10 23:40:00,37.2,34.0,29.90,SW,232,3.0,3.0,88,0.00,,,0.05,Wunderground v.1.15,2013-11-11 04:40:00,
2013-11-10 23:45:00,37.2,33.7,29.90,SW,222,4.0,4.0,87,0.00,,,0.05,Wunderground v.1.15,2013-11-11 04:45:00,
2013-11-10 23:50:00,37.1,33.6,29.90,SW,229,4.0,4.0,87,0.00,,,0.05,Wunderground v.1.15,2013-11-11 04:50:00,
2013-11-10 23:55:00,37.0,33.5,29.90,SW,232,4.0,5.0,87,0.00,,,0.05,Wunderground v.1.15,2013-11-11 04:55:00,